| time (UTC) | temp F | wind direction | speed MPH | gust MPH | rain 1hr in | rain 24hr in | rain mn in | humidity % | barometer mb |
| 20260510203028 | 72 | 234 | 9.0 | 24.0 | 0.00 | 0.00 | 0.00 | 26 | 1014.3 |
| 20260510201530 | 72 | 213 | 10.0 | 22.0 | 0.00 | 0.00 | 0.00 | 28 | 1014.5 |
| 20260510200034 | 72 | 186 | 11.0 | 21.0 | 0.00 | 0.00 | 0.00 | 27 | 1014.6 |
| 20260510194531 | 71 | 203 | 14.0 | 22.0 | 0.00 | 0.00 | 0.00 | 30 | 1014.6 |
| 20260510193032 | 70 | 196 | 14.0 | 22.0 | 0.00 | 0.00 | 0.00 | 32 | 1014.9 |
| 20260510191528 | 70 | 173 | 11.0 | 21.0 | 0.00 | 0.00 | 0.00 | 31 | 1015.2 |
| 20260510190032 | 70 | 178 | 10.0 | 26.0 | 0.00 | 0.00 | 0.00 | 32 | 1015.2 |
| 20260510184530 | 70 | 213 | 14.0 | 21.0 | 0.00 | 0.00 | 0.00 | 32 | 1015.5 |
| 20260510183032 | 69 | 164 | 12.0 | 21.0 | 0.00 | 0.00 | 0.00 | 33 | 1015.6 |
| 20260510181535 | 69 | 221 | 12.0 | 26.0 | 0.00 | 0.00 | 0.00 | 34 | 1015.7 |
| 20260510180031 | 68 | 177 | 12.0 | 24.0 | 0.00 | 0.00 | 0.00 | 35 | 1015.9 |
| 20260510174529 | 67 | 194 | 12.0 | 21.0 | 0.00 | 0.00 | 0.00 | 38 | 1016.0 |
| 20260510173030 | 67 | 181 | 14.0 | 22.0 | 0.00 | 0.00 | 0.00 | 37 | 1016.2 |
| 20260510171531 | 66 | 165 | 12.0 | 19.0 | 0.00 | 0.00 | 0.00 | 41 | 1016.4 |
| 20260510170034 | 65 | 207 | 13.0 | 20.0 | 0.00 | 0.00 | 0.00 | 41 | 1016.5 |
| 20260510164542 | 63 | 184 | 13.0 | 19.0 | 0.00 | 0.00 | 0.00 | 42 | 1016.5 |
| 20260510163033 | 62 | 195 | 11.0 | 15.0 | 0.00 | 0.00 | 0.00 | 45 | 1016.7 |
| 20260510161531 | 60 | 208 | 10.0 | 14.0 | 0.00 | 0.00 | 0.00 | 46 | 1016.8 |
| 20260510160032 | 59 | 182 | 10.0 | 16.0 | 0.00 | 0.00 | 0.00 | 49 | 1017.1 |
| 20260510154545 | 58 | 186 | 9.0 | 17.0 | 0.00 | 0.00 | 0.00 | 54 | 1017.3 |
| 20260510153031 | 56 | 198 | 12.0 | 15.0 | 0.00 | 0.00 | 0.00 | 56 | 1017.4 |
| 20260510151530 | 55 | 184 | 11.0 | 15.0 | 0.00 | 0.00 | 0.00 | 59 | 1017.5 |
| 20260510150030 | 54 | 178 | 12.0 | 16.0 | 0.00 | 0.00 | 0.00 | 62 | 1017.5 |
| 20260510144533 | 53 | 163 | 10.0 | 14.0 | 0.00 | 0.00 | 0.00 | 64 | 1017.6 |
| 20260510143039 | 52 | 204 | 9.0 | 15.0 | 0.00 | 0.00 | 0.00 | 67 | 1017.6 |
| 20260510141532 | 51 | 197 | 10.0 | 12.0 | 0.00 | 0.00 | 0.00 | 69 | 1017.7 |
| 20260510140031 | 50 | 205 | 8.0 | 10.0 | 0.00 | 0.00 | 0.00 | 72 | 1017.8 |
| 20260510134530 | 49 | 205 | 6.0 | 10.0 | 0.00 | 0.00 | 0.00 | 76 | 1017.7 |
| 20260510133031 | 45 | 198 | 5.0 | 7.0 | 0.00 | 0.00 | 0.00 | 83 | 1017.8 |
| 20260510131542 | 43 | 177 | 3.0 | 5.0 | 0.00 | 0.00 | 0.00 | 82 | 1017.8 |
| 20260510130032 | 42 | 197 | 2.0 | 5.0 | 0.00 | 0.00 | 0.00 | 82 | 1017.8 |
| 20260510124535 | 42 | 211 | 3.0 | 5.0 | 0.00 | 0.00 | 0.00 | 81 | 1017.8 |
| 20260510123032 | 42 | 182 | 3.0 | 5.0 | 0.00 | 0.00 | 0.00 | 82 | 1017.9 |
| 20260510121536 | 42 | 175 | 2.0 | 4.0 | 0.00 | 0.00 | 0.00 | 82 | 1017.8 |
| 20260510120034 | 42 | 180 | 2.0 | 3.0 | 0.00 | 0.00 | 0.00 | 81 | 1018.1 |
| 20260510114529 | 43 | 180 | 3.0 | 5.0 | 0.00 | 0.00 | 0.00 | 81 | 1018.1 |
| 20260510113030 | 43 | 181 | 2.0 | 5.0 | 0.00 | 0.00 | 0.00 | 81 | 1018.0 |
| 20260510111531 | 43 | 167 | 3.0 | 6.0 | 0.00 | 0.00 | 0.00 | 82 | 1018.0 |
| 20260510110031 | 42 | 153 | 2.0 | 5.0 | 0.00 | 0.00 | 0.00 | 83 | 1018.1 |
| 20260510104532 | 43 | 153 | 3.0 | 7.0 | 0.00 | 0.00 | 0.00 | 81 | 1018.2 |
| 20260510103029 | 43 | 154 | 6.0 | 9.0 | 0.00 | 0.00 | 0.00 | 81 | 1018.3 |
| 20260510101529 | 43 | 142 | 6.0 | 9.0 | 0.00 | 0.00 | 0.00 | 83 | 1018.3 |
| 20260510100031 | 43 | 126 | 5.0 | 7.0 | 0.00 | 0.00 | 0.00 | 83 | 1018.4 |
| 20260510094535 | 43 | 117 | 4.0 | 7.0 | 0.00 | 0.00 | 0.00 | 82 | 1018.3 |
| 20260510093030 | 44 | 134 | 5.0 | 7.0 | 0.00 | 0.00 | 0.00 | 82 | 1018.4 |
| 20260510091532 | 44 | 139 | 4.0 | 8.0 | 0.00 | 0.00 | 0.00 | 81 | 1018.3 |
| 20260510090029 | 46 | 130 | 5.0 | 7.0 | 0.00 | 0.00 | 0.00 | 81 | 1018.4 |
| 20260510084533 | 45 | 101 | 5.0 | 7.0 | 0.00 | 0.00 | 0.00 | 83 | 1018.7 |
| 20260510083028 | 45 | 102 | 4.0 | 6.0 | 0.00 | 0.00 | 0.00 | 83 | 1018.7 |
| 20260510081530 | 45 | 69 | 5.0 | 8.0 | 0.00 | 0.00 | 0.00 | 83 | 1018.7 |
| 20260510080034 | 45 | 43 | 3.0 | 5.0 | 0.00 | 0.00 | 0.00 | 83 | 1018.9 |
| 20260510074530 | 44 | 38 | 4.0 | 5.0 | 0.00 | 0.00 | 0.00 | 83 | 1018.9 |
| 20260510073030 | 44 | 37 | 4.0 | 5.0 | 0.00 | 0.00 | 0.00 | 82 | 1018.9 |
| 20260510071529 | 44 | 13 | 3.0 | 5.0 | 0.00 | 0.00 | 0.00 | 82 | 1019.0 |
| 20260510070028 | 45 | 11 | 4.0 | 5.0 | 0.00 | 0.00 | 0.00 | 79 | 1018.8 |
| 20260510064544 | 47 | 26 | 5.0 | 8.0 | 0.00 | 0.00 | 0.00 | 78 | 1018.8 |
| 20260510063032 | 46 | 115 | 2.0 | 11.0 | 0.00 | 0.00 | 0.00 | 81 | 1018.8 |
| 20260510061533 | 47 | 44 | 3.0 | 6.0 | 0.00 | 0.00 | 0.00 | 76 | 1018.9 |
| 20260510060030 | 48 | 167 | 4.0 | 8.0 | 0.00 | 0.00 | 0.00 | 77 | 1018.7 |
| 20260510054528 | 48 | 167 | 5.0 | 9.0 | 0.00 | 0.00 | 0.00 | 76 | 1018.8 |
| 20260510053041 | 49 | 152 | 7.0 | 9.0 | 0.00 | 0.00 | 0.00 | 76 | 1018.7 |
| 20260510051545 | 48 | 156 | 6.0 | 10.0 | 0.00 | 0.00 | 0.00 | 77 | 1018.6 |
| 20260510050031 | 48 | 141 | 6.0 | 9.0 | 0.00 | 0.00 | 0.00 | 77 | 1018.7 |
| 20260510044530 | 49 | 154 | 6.0 | 10.0 | 0.00 | 0.00 | 0.00 | 77 | 1018.6 |
| 20260510043030 | 49 | 136 | 7.0 | 11.0 | 0.00 | 0.00 | 0.00 | 76 | 1018.6 |
| 20260510041531 | 49 | 144 | 6.0 | 9.0 | 0.00 | 0.00 | 0.00 | 75 | 1018.6 |
| 20260510040036 | 50 | 130 | 7.0 | 10.0 | 0.00 | 0.00 | 0.00 | 73 | 1018.6 |
| 20260510034532 | 51 | 132 | 8.0 | 10.0 | 0.00 | 0.00 | 0.00 | 72 | 1018.4 |
| 20260510033032 | 51 | 130 | 6.0 | 9.0 | 0.00 | 0.00 | 0.00 | 70 | 1018.3 |
| 20260510031531 | 53 | 136 | 7.0 | 9.0 | 0.00 | 0.00 | 0.00 | 67 | 1018.1 |
| 20260510030031 | 54 | 113 | 6.0 | 9.0 | 0.00 | 0.00 | 0.00 | 66 | 1018.1 |
| 20260510024530 | 55 | 113 | 7.0 | 10.0 | 0.00 | 0.00 | 0.00 | 62 | 1017.8 |
| 20260510023030 | 57 | 117 | 8.0 | 10.0 | 0.00 | 0.00 | 0.00 | 60 | 1017.6 |
| 20260510021533 | 58 | 102 | 7.0 | 10.0 | 0.00 | 0.00 | 0.00 | 57 | 1017.6 |
| 20260510020032 | 59 | 121 | 7.0 | 9.0 | 0.00 | 0.00 | 0.00 | 56 | 1017.6 |
| 20260510014530 | 60 | 84 | 5.0 | 11.0 | 0.00 | 0.00 | 0.00 | 54 | 1017.6 |
| 20260510013034 | 61 | 64 | 7.0 | 11.0 | 0.00 | 0.00 | 0.00 | 53 | 1017.7 |
| 20260510011532 | 61 | 51 | 4.0 | 9.0 | 0.00 | 0.00 | 0.00 | 49 | 1017.6 |
| 20260510010030 | 63 | 266 | 7.0 | 12.0 | 0.00 | 0.00 | 0.00 | 48 | 1017.8 |
| 20260510004531 | 63 | 243 | 5.0 | 12.0 | 0.00 | 0.00 | 0.00 | 45 | 1017.8 |
| 20260510003031 | 63 | 227 | 10.0 | 14.0 | 0.00 | 0.00 | 0.00 | 44 | 1017.7 |
| 20260510001531 | 63 | 243 | 9.0 | 13.0 | 0.00 | 0.00 | 0.00 | 43 | 1017.7 |
| 20260510000031 | 63 | 251 | 10.0 | 15.0 | 0.00 | 0.00 | 0.00 | 42 | 1017.6 |
| 20260509234530 | 63 | 204 | 5.0 | 8.0 | 0.00 | 0.00 | 0.00 | 42 | 1017.5 |
| 20260509233032 | 63 | 248 | 5.0 | 8.0 | 0.00 | 0.00 | 0.00 | 41 | 1017.7 |
| 20260509231533 | 64 | 166 | 2.0 | 6.0 | 0.00 | 0.00 | 0.00 | 41 | 1017.7 |
| 20260509230032 | 63 | 257 | 4.0 | 8.0 | 0.00 | 0.00 | 0.00 | 42 | 1017.7 |
| 20260509224531 | 63 | 198 | 4.0 | 8.0 | 0.00 | 0.00 | 0.00 | 42 | 1017.8 |
| 20260509223028 | 62 | 244 | 3.0 | 10.0 | 0.00 | 0.00 | 0.00 | 42 | 1018.0 |
| 20260509221530 | 63 | 291 | 3.0 | 7.0 | 0.00 | 0.00 | 0.00 | 41 | 1017.9 |
| 20260509220038 | 62 | 239 | 5.0 | 12.0 | 0.00 | 0.00 | 0.00 | 41 | 1017.9 |
| 20260509214532 | 62 | 324 | 3.0 | 8.0 | 0.00 | 0.00 | 0.00 | 40 | 1018.0 |
| 20260509213033 | 62 | 242 | 9.0 | 12.0 | 0.00 | 0.00 | 0.00 | 41 | 1018.1 |
| 20260509211531 | 62 | 240 | 2.0 | 13.0 | 0.00 | 0.00 | 0.00 | 40 | 1018.1 |
| 20260509210031 | 62 | 263 | 4.0 | 9.0 | 0.00 | 0.00 | 0.00 | 40 | 1018.1 |
| 20260509204531 | 63 | 187 | 0.0 | 7.0 | 0.00 | 0.00 | 0.00 | 39 | 1018.1 |